This is the latest recevied weather packets stored in our database for station/object KE5QKR. If no packets are shown the sender has not sent any weather packets the latest 10 day(s).
| Time | Temp. | Humidity | Pressure | Rain* | Wind** | Luminosity | Snow |
|---|---|---|---|---|---|---|---|
| 1777488910 | 30° C | 68% | 1010.9 hPa | 0 mm | - | 710 W/m² | - |
| 1777488607 | 30° C | 68% | 1011.2 hPa | 0 mm | - | 851 W/m² | - |
| 1777488305 | 29.44° C | 68% | 1011.4 hPa | 0 mm | - | 906 W/m² | - |
| 1777488003 | 29.44° C | 70% | 1011.5 hPa | 0 mm | - | 854 W/m² | - |
| 1777487700 | 29.44° C | 69% | 1011.6 hPa | 0 mm | - | 602 W/m² | - |
| 1777487397 | 30° C | 66% | 1011.8 hPa | 0 mm | - | 154 W/m² | - |
| 1777487095 | 30° C | 67% | 1011.8 hPa | 0 mm | - | 862 W/m² | - |
| 1777486790 | 30.56° C | 65% | 1012.2 hPa | 0 mm | - | 188 W/m² | - |
| 1777486489 | 30° C | 62% | 1012.3 hPa | 0 mm | - | 870 W/m² | - |
| 1777486186 | 29.44° C | 65% | 1012 hPa | 0 mm | - | 772 W/m² | - |
| 1777485883 | 30.56° C | 62% | 1011.9 hPa | 0 mm | - | 902 W/m² | - |
| 1777485578 | 30.56° C | 64% | 1012.3 hPa | 0 mm | - | 839 W/m² | - |
| 1777485274 | 30° C | 64% | 1012.1 hPa | 0 mm | - | 901 W/m² | - |
| 1777484971 | 30.56° C | 65% | 1012.5 hPa | 0 mm | - | 842 W/m² | - |
| 1777484668 | 30.56° C | 62% | 1012.7 hPa | 0 mm | - | 858 W/m² | - |
| 1777484365 | 30.56° C | 66% | 1012.8 hPa | 0 mm | - | 856 W/m² | - |
| 1777484061 | 30.56° C | 65% | 1012.6 hPa | 0 mm | - | 417 W/m² | - |
| 1777483757 | 30.56° C | 62% | 1012.9 hPa | 0 mm | - | 876 W/m² | - |
| 1777483454 | 30.56° C | 64% | 1012.8 hPa | 0 mm | - | 873 W/m² | - |
| 1777483148 | 30.56° C | 68% | 1012.9 hPa | 0 mm | - | 906 W/m² | - |
| 1777482846 | 30° C | 68% | 1012.8 hPa | 0 mm | - | 891 W/m² | - |
| 1777482541 | 29.44° C | 68% | 1013 hPa | 0 mm | - | 895 W/m² | - |
| 1777482239 | 28.89° C | 71% | 1012.9 hPa | 0 mm | - | 887 W/m² | - |
| 1777481936 | 28.89° C | 69% | 1013.2 hPa | 0 mm | - | 364 W/m² | - |
| 1777481634 | 28.89° C | 70% | 1013.1 hPa | 0 mm | - | 874 W/m² | - |
* Rain latest hour (hover to see other rain measurements)
** Current wind speed in m/s (hover to see current wind gust speed)